P/2007 C1 (Christensen)

T 2007 Mar. 5.26362 TT                                  Nakano

q   2.0508105            (2000.0)            P               Q

n   0.15111542     Peri.   95.61584     -0.88068032     -0.45898523

a   3.4908421      Node    57.11436     +0.36027437     -0.80960261

e   0.4125170      Incl.    8.02231     +0.30757853     -0.36589094

P   6.52 (+/- 0.03 day)

From 134 observations 2007 Feb. 9-Apr. 12.

Residuals in seconds of arc 

2007/                     070215 J95  0.1+  0.0     070222 J70  0.7-  0.6-  

070209 703  0.4-  0.2+    070215 J95  0.5-  0.1-    070222 J70  0.1-  0.1-  

070209 703  0.8-  0.4-    070215 673  0.9+  0.5-    070224 349  0.3-  0.3-  

070209 703  0.3-  0.1+    070215 673  0.6+  0.6+    070224 349  0.3-  0.2-  

070209 703  1.8-  0.7-    070215 673  0.7+  0.1+    070303 213  0.4-  0.1-  

070209 A13  0.1+  0.2-    070215 673  0.2+  0.3+    070303 213  0.3-  0.0   

070209 A13  0.1+  0.2-    070215 104  1.5+  0.7-    070304 213  0.1+  0.1-  

070209 A44  0.2+  0.2+    070215 104  0.2-  0.3+    070306 850  0.1+  0.6+  

070209 A44  0.2-  0.1-    070215 104  0.2-  0.5+    070306 850  0.6-  0.4+  

070209 A13  0.3-  0.1-    070215 215  0.9+  0.3-    070307 461  0.4-  0.2+  

070209 A44  0.2-  0.5-    070215 215  1.1+  0.3-    070307 461  0.0   1.1-  

070209 176  0.6-  0.1+    070215 215  1.4+  0.2-    070308 850  0.3-  0.4-  

070209 176  0.1-  0.2-    070215 A13  0.2-  0.0     070308 850  0.2-  0.3+  

070209 176  0.3-  0.4-    070215 A13  0.1-  0.0     070308 850  0.3+  0.1-  

070209 176  0.4+  0.5-    070215 213  0.1-  0.4-    070308 850  0.6-  0.0   

070210 473  0.1-  0.0     070215 213  0.1-  0.2+    070308 673  0.3-  1.0+  

070210 473  0.2+  0.2+    070215 213  0.0   0.2+    070308 673  0.3-  0.9+  

070210 473  0.4+  0.3+    070215 A13  0.2-  0.1+    070308 673  0.3-  0.3+  

070210 I77  0.8-  0.2-    070216 850  0.1-  0.6+    070308 673  0.2-  0.2+  

070210 I77  0.1-  0.4+    070216 850  0.2-  0.6+    070310 213  0.5+  0.4-  

070210 I77  0.0   0.3+    070216 850  1.2+  0.2+    070310 213  0.4+  0.4-  

070210 703  0.5+  0.9+    070216 850  2.0+  0.5+    070310 213  0.5+  0.3-  

070210 703  0.3+  0.6+    070216 850  0.4-  0.2+    070310 224  1.3+  0.1+  

070210 703  0.2-  0.5+    070216 850  0.4-  0.7+    070310 224  0.1+  0.4+  

070210 703  0.4-  0.2+    070216 104 (4.1-  4.7-)   070310 224  0.2+  1.6+  

070210 H36  0.0   0.3-    070216 104  0.2-  0.0     070311 246  0.3+  0.2+  

070210 H36  0.1+  0.3-    070216 104  0.1+  0.2+    070311 246  0.2+  1.0-  

070210 H36 (3.0+  1.1-)   070217 850  0.5+  0.1-    070311 246  0.2+  0.3+  

070211 473  0.7-  0.2+    070217 850  0.2-  0.5-    070311 246  0.2+  0.0   

070211 473  0.1-  0.0     070217 850  0.3-  0.0     070311 246  0.1-  0.2+  

070211 473  0.4+  0.9-    070217 850  0.1-  0.4-    070313 850  0.3+  0.5-  

070211 204  0.0   0.2-    070218 246  0.3+  0.9+    070313 850  0.4-  0.5-  

070211 204  0.3+  0.0     070218 246  0.4+  0.3+    070313 850  0.2-  0.3-  

070211 850  0.2-  0.6-    070218 246  0.3+  0.0     070317 170  0.5-  0.6-  

070211 850  0.4+  0.0     070218 246  0.0   0.7+    070317 170  0.7-  0.2+  

070211 850  0.6+  0.1-    070218 246  0.3+  0.5+    070317 170  1.0-  0.1-  

070211 372  0.6-  0.4+    070218 246  0.4+  0.4+    070322 300  0.0   0.2-  

070211 349  0.6+  0.2-    070219 850  0.3-  0.3-    070322 300  0.3+  0.0   

070211 349  0.9+  0.1-    070219 850  0.6-  0.6-    070322 300  1.0+  0.1-  

070211 349  0.6+  0.2+    070219 850  0.2+  0.5-    070322 300  0.5+  0.0   

070212 372  0.3-  0.1-    070219 850  0.3+  0.5-    070407 213  0.1+  0.3+  

070212 372  0.3+  1.0+    070219 850  0.2-  0.3-    070407 213  0.1+  0.0   

070214 J70  2.0-  0.6+    070219 850  0.1-  0.9-    070407 213  0.0   0.1+  

070214 J70  1.0-  0.4+    070219 850  0.1-  0.5-    070412 561  0.7-  0.7+  

070215 J70  0.5-  0.3+    070222 J70 (5.5-  6.0-)   070412 561  1.2+  0.2+  

070215 J95  0.0   0.8-    070222 J70  1.6-  0.8-    070412 561  0.8-  1.1-  



NAKANO

         **** Don't distribute anyone except personal use only ****

                (C) Copyright 2007 OAA/ComputingSection

write mail from CFAD0::NAKANO on 2007-05-04 04:01:44(JST).



    P/2007 C1 (Christensen)

T 2007 Mar. 5.85547 TT                                  Nakano

q   2.0486082            (2000.0)            P               Q

n   0.15133567     Peri.   95.93804     -0.88267084     -0.45519721

a   3.4874543      Node    57.03889     +0.35683908     -0.81107218

e   0.4125777      Incl.    8.01535     +0.30587262     -0.36736553

P   6.51 (+/- 0.33 day)

From 91 observations 2007 Feb. 9-24.



NAKANO

         **** Don't distribute anyone except personal use only ****

                (C) Copyright 2007 OAA/ComputingSection

write mail from CFAD0::NAKANO on 2007-03-05 06:22:02(JST).

 





◎P/2007 C1の軌道と予報位置です



 上尾の門田健一氏より,今朝(2007年2月12日)の観測が報告されました.氏の

CCD 全光度は,18.5等でした.なお,この観測は,彗星が短周期彗星の1つである

ことを確定するものです.ただし,周期は,まだ,大きく不確かです.

 やっと,暇になったので,次のYC(すぐ出さなければいけない)のために観測

するぞう・・・.



    P/2007 C1 (Christensen)

T 2007 Mar. 5.58797 TT                                  Nakano

q   2.0237454            (2000.0)            P               Q

n   0.15512217     Peri.   96.22127     -0.88308260     -0.45482234

a   3.4304688      Node    56.78090     +0.35721029     -0.81103543

e   0.4100674      Incl.    7.92418     +0.30424649     -0.36791053

P   6.35 (+/- 7.99 days)

From 29 observations 2007 Feb. 9-11.

 

Date/        TT  R.A.(2000) Decl.     Delta   r     Daily motion  Mag.  Moon Age

              h    h  m       。  ,                      ,  / PA 。  m1      。

2007 Feb. 10 19  10 15.16  +27 10.9   1.064  2.031    10.0 / 299  18.2   91  .46

          11 19  10 14.50  +27 15.8   1.063  2.031    10.0 / 298  18.2  103  .37

          12 19  10 13.84  +27 20.5   1.061  2.030    10.1 / 296  18.2  116  .27

          13 19  10 13.16  +27 25.0   1.060  2.030    10.1 / 295  18.2  128  .18

          14 19  10 12.47  +27 29.2   1.060  2.029    10.1 / 294  18.2  141  .11

          15 19  10 11.78  +27 33.3   1.059  2.028    10.1 / 292  18.2  154  .05

          16 19  10 11.08  +27 37.1   1.059  2.028    10.0 / 291  18.2  164  .01

          17 19  10 10.38  +27 40.6   1.059  2.027    10.0 / 289  18.2  165  .00

          18 19  10 09.67  +27 44.0   1.059  2.027     9.9 / 288  18.2  155  .02

          19 19  10 08.96  +27 47.0   1.059  2.027     9.8 / 287  18.2  141  .06

          20 19  10 08.25  +27 49.8   1.060  2.026     9.7 / 285  18.2  127  .13

          21 19  10 07.55  +27 52.3   1.061  2.026     9.6 / 284  18.2  113  .23

          22 19  10 06.85  +27 54.6   1.062  2.025     9.4 / 282  18.2   99  .33

          23 19  10 06.15  +27 56.5   1.063  2.025     9.3 / 280  18.2   85  .44

          24 19  10 05.47  +27 58.2   1.065  2.025     9.1 / 279  18.2   71  .55

          25 19  10 04.79  +27 59.6   1.066  2.025     8.9 / 277  18.2   58  .66

          26 19  10 04.12  +28 00.6   1.068  2.024     8.7 / 275  18.2   45  .75

          27 19  10 03.46  +28 01.4   1.070  2.024     8.5 / 273  18.2   33  .84

          28 19  10 02.82  +28 01.9   1.073  2.024     8.3 / 271  18.2   22  .90

     Mar.  1 19  10 02.19  +28 02.1   1.075  2.024     8.1 / 269  18.2   14  .95

NAKANO

         **** Don't distribute anyone except personal use only ****

                (C) Copyright 2007 OAA/ComputingSection

write mail from CFAD0::NAKANO on 2007-02-12 06:18:04(JST).

 



戻ります。